Simultaneous Nadir Overpasses (SNOs) Predictions

Prediction of SNOs between GOES-15 and METOP-A Satellite Orbit:

Table of predicted SNOs for the next 14.0 days since TLE Epoch: 11/1/2019
Index Date Time (GOES-15) GOES-15 Lat,Lon METOP-A Lat,Lon Distance(km) Time Diff (sec)
1 11/02/2019 05:22:41 0.26,-128.45 0.59,-126.87 178.83 80
2 11/03/2019 17:41:34 -0.26,-128.46 0.39,-131.47 343.09 80
3 11/04/2019 17:23:34 -0.26,-128.47 -0.69,-126.49 225.76 80
4 11/06/2019 05:42:36 0.26,-128.49 -0.32,-131.11 298.87 80
5 11/07/2019 05:19:16 0.26,-128.50 0.76,-126.13 269.40 80
6 11/08/2019 17:38:09 -0.26,-128.50 0.21,-130.73 253.32 80
7 11/09/2019 17:20:10 -0.26,-128.51 -0.87,-125.74 315.13 80
8 11/11/2019 05:39:11 0.26,-128.53 -0.15,-130.37 209.77 80
9 11/12/2019 05:15:52 0.25,-128.53 0.93,-125.38 357.89 80
10 11/13/2019 17:34:44 -0.25,-128.52 0.09,-129.97 166.24 80
11 11/14/2019 17:16:46 -0.25,-128.52 -1.05,-125.00 401.37 80




NCC Satellite Simultaneous Nadir Overpasses (SNOs) Prediction Service
